Time,TemperatureF,DewpointF,PressureIn,WindDirection,WindDirectionDegrees,WindSpeedMPH,WindSpeedGustMPH,Humidity,HourlyPrecipIn,Conditions,Clouds,dailyrainin,SoftwareType,DateUTC
2014-12-18 00:00:00,21.1,14.4,29.57,NW,314,0.0,0.0,75,0.00,CLR,,0.00,WeatherDisplay:10.37,2014-12-18 09:00:00,
2014-12-18 00:05:00,21.1,14.4,29.57,NW,308,0.0,0.0,75,0.00,CLR,,0.00,WeatherDisplay:10.37,2014-12-18 09:05:00,
2014-12-18 00:10:00,21.1,14.4,29.57,West,275,5.8,6.3,75,0.00,CLR,,0.00,WeatherDisplay:10.37,2014-12-18 09:10:00,
2014-12-18 00:15:00,21.1,14.4,29.57,WNW,294,2.4,5.8,75,0.00,CLR,,0.00,WeatherDisplay:10.37,2014-12-18 09:15:00,
2014-12-18 00:20:00,21.1,14.4,29.57,NW,308,0.0,0.0,75,0.00,CLR,,0.00,WeatherDisplay:10.37,2014-12-18 09:20:00,
2014-12-18 00:25:00,21.1,14.4,29.57,NW,308,0.0,0.0,75,0.00,CLR,,0.00,WeatherDisplay:10.37,2014-12-18 09:25:00,
2014-12-18 00:30:00,21.0,14.3,29.57,NNE,13,0.7,2.3,75,0.00,CLR,,0.00,WeatherDisplay:10.37,2014-12-18 09:30:00,
2014-12-18 00:35:00,20.9,14.2,29.57,NNE,13,0.0,0.0,75,0.00,CLR,,0.00,WeatherDisplay:10.37,2014-12-18 09:35:00,
2014-12-18 00:39:00,20.8,14.4,29.57,ENE,68,0.5,7.2,76,0.00,CLR,,0.00,WeatherDisplay:10.37,2014-12-18 09:39:00,
2014-12-18 00:44:00,20.8,14.4,29.57,ENE,68,6.8,8.1,76,0.00,CLR,,0.00,WeatherDisplay:10.37,2014-12-18 09:44:00,
2014-12-18 00:49:00,20.7,14.3,29.57,NE,41,5.9,8.1,76,0.00,CLR,,0.00,WeatherDisplay:10.37,2014-12-18 09:49:00,
2014-12-18 00:54:00,20.6,14.2,29.57,ENE,65,5.5,8.1,76,0.00,CLR,,0.00,WeatherDisplay:10.37,2014-12-18 09:54:00,
2014-12-18 00:59:00,20.5,13.8,29.57,NE,55,0.0,0.0,75,0.00,CLR,,0.00,WeatherDisplay:10.37,2014-12-18 09:59:00,
2014-12-18 01:04:00,20.5,14.1,29.57,NE,34,2.7,2.7,76,0.00,CLR,,0.00,WeatherDisplay:10.37,2014-12-18 10:04:00,
2014-12-18 01:09:00,20.5,14.1,29.57,NNE,20,0.0,4.6,76,0.00,CLR,,0.00,WeatherDisplay:10.37,2014-12-18 10:09:00,
2014-12-18 01:14:00,20.4,14.0,29.57,NNE,20,0.0,0.0,76,0.00,CLR,,0.00,WeatherDisplay:10.37,2014-12-18 10:14:00,
2014-12-18 01:19:00,20.4,14.0,29.56,NNE,20,0.0,0.0,76,0.00,CLR,,0.00,WeatherDisplay:10.37,2014-12-18 10:19:00,
2014-12-18 01:24:00,20.4,14.0,29.56,NE,55,4.8,8.1,76,0.00,CLR,,0.00,WeatherDisplay:10.37,2014-12-18 10:24:00,
2014-12-18 01:29:00,20.4,14.0,29.56,NNE,25,0.0,0.0,76,0.00,CLR,,0.00,WeatherDisplay:10.37,2014-12-18 10:29:00,
2014-12-18 01:34:00,20.3,13.9,29.56,ENE,61,5.7,8.8,76,0.00,CLR,,0.00,WeatherDisplay:10.37,2014-12-18 10:34:00,
2014-12-18 01:39:00,20.2,13.8,29.56,ENE,64,0.0,0.0,76,0.00,CLR,,0.00,WeatherDisplay:10.37,2014-12-18 10:39:00,
2014-12-18 01:44:00,20.1,13.7,29.56,NE,52,0.0,0.0,76,0.00,CLR,,0.00,WeatherDisplay:10.37,2014-12-18 10:44:00,
2014-12-18 01:49:00,20.1,13.7,29.56,NE,49,4.2,9.2,76,0.00,CLR,,0.00,WeatherDisplay:10.37,2014-12-18 10:49:00,
2014-12-18 01:54:00,20.0,13.6,29.56,NNE,28,2.0,6.9,76,0.00,CLR,,0.00,WeatherDisplay:10.37,2014-12-18 10:54:00,
2014-12-18 01:59:00,20.0,13.6,29.55,NE,49,7.1,8.1,76,0.00,CLR,,0.00,WeatherDisplay:10.37,2014-12-18 10:59:00,
2014-12-18 02:04:00,20.0,13.6,29.56,ENE,65,5.3,8.1,76,0.00,CLR,,0.00,WeatherDisplay:10.37,2014-12-18 11:04:00,
2014-12-18 02:09:00,20.0,13.6,29.56,ENE,58,3.8,5.8,76,0.00,CLR,,0.00,WeatherDisplay:10.37,2014-12-18 11:09:00,
2014-12-18 02:14:00,19.9,13.6,29.56,NE,52,0.0,0.0,76,0.00,CLR,,0.00,WeatherDisplay:10.37,2014-12-18 11:14:00,
2014-12-18 02:19:00,19.8,13.5,29.56,NE,52,0.0,0.0,76,0.00,CLR,,0.00,WeatherDisplay:10.37,2014-12-18 11:19:00,
2014-12-18 02:24:00,19.7,13.4,29.56,ENE,64,3.5,8.3,76,0.00,CLR,,0.00,WeatherDisplay:10.37,2014-12-18 11:24:00,
2014-12-18 02:29:00,19.7,13.4,29.55,NE,34,4.7,5.8,76,0.00,CLR,,0.00,WeatherDisplay:10.37,2014-12-18 11:29:00,
2014-12-18 02:34:00,19.7,13.4,29.55,NNE,32,0.0,0.0,76,0.00,CLR,,0.00,WeatherDisplay:10.37,2014-12-18 11:34:00,
2014-12-18 02:39:00,19.7,13.4,29.55,NE,49,0.0,5.7,76,0.00,CLR,,0.00,WeatherDisplay:10.37,2014-12-18 11:39:00,
2014-12-18 02:44:00,19.7,13.4,29.55,NE,48,6.2,7.0,76,0.00,CLR,,0.00,WeatherDisplay:10.37,2014-12-18 11:44:00,
2014-12-18 02:49:00,19.6,13.3,29.55,NE,55,8.1,10.4,76,0.00,CLR,,0.00,WeatherDisplay:10.37,2014-12-18 11:49:00,
2014-12-18 02:54:00,19.6,13.3,29.55,NE,49,8.0,10.4,76,0.00,CLR,,0.00,WeatherDisplay:10.37,2014-12-18 11:54:00,
2014-12-18 02:59:00,19.6,13.3,29.55,ENE,65,8.0,9.2,76,0.00,CLR,,0.00,WeatherDisplay:10.37,2014-12-18 11:59:00,